Find OneWeb SL0578

NORAD ID: 56067 Int'l Des: 2023-043 Owner: ONEWEBN Country: UK Constellation: oneweb operational
LEOCIRCULARPOLARONEWEB_TYPE

Live Position

Loading 3D Globe...

About OneWeb SL0578

Description loading...

Upcoming Passes

Passes for default location (London). Set your location on the main map for personalized predictions.

Altitude History

Loading altitude history...

Two-Line Element Set

1 56067U 23043X 26106.71282778 -.00000099 00000-0 -27225-3 0 9994
2 56067 87.9202 256.2140 0001506 104.3849 255.7452 13.21821795150112
Epoch: Apr 16, 2026 • Age: 10 hours

Current Status

Altitude 1179.6 km
Velocity 7.27 km/s
Sub-Earth Point 19.74°N, 174.86°W
Launch Date Mar 26, 2023
Age 3 years
Type internet

Technical Details

Classification Payload
Mass 148.00 kg
Dry Mass 140.00 kg
Total Mass 148.00 kg
Length 1.30 m
Diameter 1.00 m
Span 5.00 m
Shape Trapezoid+2 pan
Manufacturer ONEWUS
Bus Type ARROW
Phase Status In Orbit
Owner/State ONEWEBN/UK

Most Searched